CW9878 Weather Reports


Display with metric or nautical units.
time (UTC)temp
F
wind
direction
speed
MPH
gust
MPH
rain 1hr
in
rain 24hr
in
rain mn
in
humidity
%
barometer
mb
20240424062822 55 234 3.0 9.0 0.00 0.00 0.00 28 1022.8
20240424062324 55 306 3.0 9.0 0.00 0.00 0.00 28 1022.8
20240424061812 54 259 3.0 9.0 0.00 0.00 0.00 29 1022.9
20240424061333 54 275 2.0 6.0 0.00 0.00 0.00 29 1022.9
20240424060842 54 263 2.0 6.0 0.00 0.00 0.00 29 1022.9
20240424060330 54 319 2.0 5.0 0.00 0.00 0.00 29 1022.9
20240424055811 54 316 2.0 7.0 0.00 0.00 0.00 29 1022.9
20240424055312 54 250 3.0 7.0 0.00 0.00 0.00 29 1022.9
20240424054813 54 298 2.0 6.0 0.00 0.00 0.00 29 1022.9
20240424054322 54 311 2.0 9.0 0.00 0.00 0.00 29 1023.0
20240424053852 55 284 2.0 9.0 0.00 0.00 0.00 28 1022.9
20240424053313 55 275 3.0 9.0 0.00 0.00 0.00 28 1023.0
20240424052814 55 260 3.0 10.0 0.00 0.00 0.00 28 1022.9
20240424052315 55 245 4.0 10.0 0.00 0.00 0.00 28 1023.1
20240424051823 55 289 3.0 8.0 0.00 0.00 0.00 28 1023.1
20240424051324 55 263 2.0 8.0 0.00 0.00 0.00 28 1023.2
20240424050834 55 273 3.0 7.0 0.00 0.00 0.00 28 1023.2
20240424050315 55 318 3.0 7.0 0.00 0.00 0.00 28 1023.1
20240424045817 56 296 3.0 7.0 0.00 0.00 0.00 27 1023.1
20240424045326 57 241 2.0 8.0 0.00 0.00 0.00 26 1023.2
20240424044848 58 273 2.0 8.0 0.00 0.00 0.00 25 1023.2
20240424044336 59 240 2.0 6.0 0.00 0.00 0.00 25 1023.2
20240424043813 60 257 3.0 8.0 0.00 0.00 0.00 24 1023.2
20240424043315 61 263 3.0 10.0 0.00 0.00 0.00 23 1023.2
20240424042824 62 248 3.0 10.0 0.00 0.00 0.00 23 1023.2
20240424042321 62 264 2.0 7.0 0.00 0.00 0.00 23 1023.2
20240424041830 62 257 2.0 7.0 0.00 0.00 0.00 23 1023.2
20240424041333 62 245 2.0 8.0 0.00 0.00 0.00 24 1023.3
20240424040813 62 246 3.0 12.0 0.00 0.00 0.00 24 1023.2
20240424040322 61 220 6.0 12.0 0.00 0.00 0.00 24 1023.2
20240424035825 61 242 3.0 10.0 0.00 0.00 0.00 25 1023.2
20240424035312 59 251 3.0 10.0 0.00 0.00 0.00 26 1023.2
20240424034814 58 222 2.0 4.0 0.00 0.00 0.00 26 1023.2
20240424034316 56 287 1.0 4.0 0.00 0.00 0.00 26 1023.2
20240424033844 55 265 2.0 3.0 0.00 0.00 0.00 26 1023.2
20240424033325 56 265 1.0 4.0 0.00 0.00 0.00 25 1023.2
20240424032834 57 265 1.0 4.0 0.00 0.00 0.00 25 1023.0
20240424032315 57 286 2.0 4.0 0.00 0.00 0.00 24 1023.0
20240424031844 58 247 1.0 2.0 0.00 0.00 0.00 24 1022.9
20240424031324 58 247 0.0 2.0 0.00 0.00 0.00 24 1022.8
20240424030854 58 247 1.0 3.0 0.00 0.00 0.00 24 1022.8
20240424030315 58 246 1.0 3.0 0.00 0.00 0.00 24 1022.7
20240424025824 59 247 1.0 2.0 0.00 0.00 0.00 24 1022.7
20240424025325 59 247 1.0 3.0 0.00 0.00 0.00 23 1022.7
20240424024826 61 247 1.0 3.0 0.00 0.00 0.00 22 1022.6
20240424024336 61 247 1.0 3.0 0.00 0.00 0.00 22 1022.5
20240424023818 61 246 1.0 4.0 0.00 0.00 0.00 22 1022.3
20240424023339 61 246 1.0 4.0 0.00 0.00 0.00 22 1022.2
20240424022846 62 247 2.0 4.0 0.00 0.00 0.00 22 1022.0
20240424022333 62 247 2.0 4.0 0.00 0.00 0.00 21 1022.0
20240424021815 62 246 1.0 5.0 0.00 0.00 0.00 21 1022.0
20240424021334 63 246 1.0 7.0 0.00 0.00 0.00 20 1021.9
20240424020820 63 232 2.0 7.0 0.00 0.00 0.00 20 1021.9
20240424020322 64 259 1.0 6.0 0.00 0.00 0.00 20 1021.8
20240424015823 64 235 3.0 8.0 0.00 0.00 0.00 19 1021.8
20240424015331 65 261 2.0 8.0 0.00 0.00 0.00 19 1021.7
20240424014813 65 294 3.0 9.0 0.00 0.00 0.00 19 1021.6
20240424014342 65 335 1.0 9.0 0.00 0.00 0.00 19 1021.6
20240424013843 66 227 3.0 9.0 0.00 0.00 0.00 19 1021.4
20240424013331 66 279 1.0 14.0 0.00 0.00 0.00 18 1021.4
20240424012813 66 232 3.0 14.0 0.00 0.00 0.00 18 1021.5
20240424012342 66 300 4.0 10.0 0.00 0.00 0.00 18 1021.4
20240424011822 67 263 3.0 9.0 0.00 0.00 0.00 18 1021.4
20240424011324 67 242 2.0 8.0 0.00 0.00 0.00 17 1021.3
20240424010812 68 260 2.0 8.0 0.00 0.00 0.00 17 1021.3
20240424010334 68 236 1.0 8.0 0.00 0.00 0.00 17 1021.3
20240424005822 68 217 3.0 7.0 0.00 0.00 0.00 16 1021.2
20240424005324 69 254 2.0 8.0 0.00 0.00 0.00 16 1021.2
20240424004833 69 256 3.0 8.0 0.00 0.00 0.00 16 1021.1
20240424004314 70 260 1.0 11.0 0.00 0.00 0.00 16 1021.1
20240424003837 70 202 4.0 11.0 0.00 0.00 0.00 15 1021.1
20240424003325 70 177 5.0 10.0 0.00 0.00 0.00 15 1021.2
20240424002826 70 284 4.0 11.0 0.00 0.00 0.00 15 1021.1
20240424002333 71 272 3.0 15.0 0.00 0.00 0.00 14 1021.2
20240424001834 71 221 7.0 15.0 0.00 0.00 0.00 14 1021.1
20240424001342 71 298 5.0 15.0 0.00 0.00 0.00 14 1021.1
20240424000830 71 286 4.0 15.0 0.00 0.00 0.00 14 1021.1
20240424000312 72 225 5.0 14.0 0.00 0.00 0.00 13 1021.2
20240423235813 72 261 4.0 12.0 0.00 0.00 0.00 14 1021.3
20240423235315 72 245 6.0 12.0 0.00 0.00 0.00 14 1021.1
20240423234823 73 269 6.0 11.0 0.00 0.00 0.00 13 1021.1
20240423234353 73 273 4.0 10.0 0.00 0.00 0.00 13 1021.1
20240423233813 73 233 3.0 12.0 0.00 0.00 0.00 13 1021.0
20240423233315 73 307 6.0 12.0 0.00 0.00 0.00 13 1021.0
20240423232818 74 288 4.0 11.0 0.00 0.00 0.00 13 1020.8
20240423232326 74 224 3.0 9.0 0.00 0.00 0.00 13 1020.8
20240423231856 74 299 4.0 15.0 0.00 0.00 0.00 13 1020.8
20240423231316 74 273 7.0 15.0 0.00 0.00 0.00 12 1020.9
20240423230818 75 310 6.0 13.0 0.00 0.00 0.00 12 1020.9
20240423230320 75 309 4.0 13.0 0.00 0.00 0.00 11 1020.8
20240423225829 75 238 3.0 12.0 0.00 0.00 0.00 13 1020.8
20240423225310 74 253 6.0 13.0 0.00 0.00 0.00 12 1020.7
20240423224812 75 211 6.0 15.0 0.00 0.00 0.00 12 1020.8
20240423224314 75 260 6.0 15.0 0.00 0.00 0.00 12 1020.8
20240423223824 75 229 5.0 15.0 0.00 0.00 0.00 12 1020.9
20240423223326 76 250 8.0 15.0 0.00 0.00 0.00 11 1020.8
20240423222835 75 248 5.0 19.0 0.00 0.00 0.00 13 1020.7
20240423222315 75 307 5.0 19.0 0.00 0.00 0.00 13 1020.8
20240423221818 76 336 5.0 12.0 0.00 0.00 0.00 13 1020.8
20240423221326 76 248 4.0 13.0 0.00 0.00 0.00 13 1020.8
20240423220828 76 226 4.0 13.0 0.00 0.00 0.00 13 1020.8
20240423220311 76 223 3.0 16.0 0.00 0.00 0.00 13 1020.8
20240423215841 75 239 6.0 16.0 0.00 0.00 0.00 14 1020.8
20240423215321 76 253 5.0 13.0 0.00 0.00 0.00 14 1020.8
20240423214850 76 244 5.0 15.0 0.00 0.00 0.00 14 1020.8
20240423214311 76 263 7.0 15.0 0.00 0.00 0.00 13 1021.1
20240423213813 77 178 5.0 15.0 0.00 0.00 0.00 13 1021.0
20240423213342 76 257 5.0 15.0 0.00 0.00 0.00 14 1020.9
20240423212851 76 145 9.0 15.0 0.00 0.00 0.00 13 1021.1
20240423212311 77 271 5.0 13.0 0.00 0.00 0.00 14 1021.1
20240423211813 76 269 7.0 18.0 0.00 0.00 0.00 14 1021.1
20240423211342 77 247 8.0 18.0 0.00 0.00 0.00 14 1021.1
20240423210823 77 341 5.0 14.0 0.00 0.00 0.00 13 1021.2
20240423210314 77 222 5.0 12.0 0.00 0.00 0.00 14 1021.2
20240423205815 76 284 4.0 15.0 0.00 0.00 0.00 15 1021.2
20240423205316 75 313 4.0 15.0 0.00 0.00 0.00 15 1021.2
20240423204845 77 311 7.0 15.0 0.00 0.00 0.00 15 1021.5
20240423204327 76 201 5.0 13.0 0.00 0.00 0.00 14 1021.5
20240423203836 76 326 5.0 12.0 0.00 0.00 0.00 14 1021.6
20240423203316 76 284 4.0 13.0 0.00 0.00 0.00 15 1021.5
20240423202825 76 351 4.0 14.0 0.00 0.00 0.00 14 1021.6
20240423202346 77 241 5.0 14.0 0.00 0.00 0.00 14 1021.6
20240423201834 77 319 6.0 13.0 0.00 0.00 0.00 14 1021.6
20240423201316 76 284 3.0 11.0 0.00 0.00 0.00 14 1021.6
20240423200818 76 284 5.0 11.0 0.00 0.00 0.00 14 1021.7
20240423200320 76 245 6.0 15.0 0.00 0.00 0.00 14 1021.9
20240423195829 76 276 5.0 15.0 0.00 0.00 0.00 14 1021.8
20240423195310 76 267 7.0 15.0 0.00 0.00 0.00 14 1021.7
20240423194812 76 57 4.0 15.0 0.00 0.00 0.00 13 1021.5
20240423194341 77 207 3.0 9.0 0.00 0.00 0.00 14 1021.6
20240423193822 76 296 4.0 16.0 0.00 0.00 0.00 16 1021.7
20240423193331 77 37 5.0 16.0 0.00 0.00 0.00 14 1021.7
20240423192819 76 205 4.0 10.0 0.00 0.00 0.00 16 1021.7
20240423192320 75 223 5.0 11.0 0.00 0.00 0.00 15 1022.0
20240423191845 75 279 6.0 14.0 0.00 0.00 0.00 15 1022.0
20240423191325 76 220 6.0 14.0 0.00 0.00 0.00 14 1021.9
20240423190814 76 259 6.0 14.0 0.00 0.00 0.00 14 1022.0
20240423190315 77 292 4.0 10.0 0.00 0.00 0.00 15 1022.0
20240423185826 76 259 3.0 9.0 0.00 0.00 0.00 15 1022.2
20240423185326 76 217 3.0 8.0 0.00 0.00 0.00 15 1022.1
20240423184808 75 153 3.0 12.0 0.00 0.00 0.00 16 1022.2
20240423184310 75 254 2.0 12.0 0.00 0.00 0.00 17 1022.2
20240423183819 74 209 4.0 12.0 0.00 0.00 0.00 16 1022.4
20240423183321 75 233 4.0 14.0 0.00 0.00 0.00 16 1022.4
20240423182823 75 196 5.0 14.0 0.00 0.00 0.00 17 1022.5
20240423182315 74 167 2.0 17.0 0.00 0.00 0.00 17 1022.5
20240423181817 74 214 9.0 17.0 0.00 0.00 0.00 16 1022.5
20240423181319 76 179 2.0 15.0 0.00 0.00 0.00 16 1022.6
20240423180828 75 244 4.0 15.0 0.00 0.00 0.00 18 1022.6
20240423180310 74 153 4.0 15.0 0.00 0.00 0.00 18 1022.5
20240423175813 75 254 2.0 12.0 0.00 0.00 0.00 18 1022.6
20240423175315 75 241 4.0 12.0 0.00 0.00 0.00 17 1022.7
20240423174823 75 227 3.0 11.0 0.00 0.00 0.00 17 1022.8
20240423174326 75 242 5.0 11.0 0.00 0.00 0.00 17 1022.7
20240423173834 74 237 4.0 9.0 0.00 0.00 0.00 17 1022.7
20240423173316 74 163 4.0 9.0 0.00 0.00 0.00 17 1022.7
20240423172818 74 187 3.0 10.0 0.00 0.00 0.00 18 1022.8
20240423172320 74 237 2.0 10.0 0.00 0.00 0.00 18 1022.7
20240423171828 73 186 3.0 12.0 0.00 0.00 0.00 19 1022.7
20240423171310 74 196 2.0 18.0 0.00 0.00 0.00 19 1022.8
20240423170812 73 161 3.0 18.0 0.00 0.00 0.00 19 1022.8
20240423170322 73 235 6.0 15.0 0.00 0.00 0.00 20 1022.7
20240423165823 73 252 4.0 16.0 0.00 0.00 0.00 20 1022.8
20240423165324 73 267 4.0 16.0 0.00 0.00 0.00 21 1022.7
20240423164833 72 245 3.0 11.0 0.00 0.00 0.00 21 1022.6
20240423164314 72 319 5.0 11.0 0.00 0.00 0.00 21 1022.8
20240423163817 72 209 3.0 11.0 0.00 0.00 0.00 21 1022.7
20240423163345 72 281 3.0 10.0 0.00 0.00 0.00 22 1022.7
20240423162833 72 280 5.0 13.0 0.00 0.00 0.00 21 1022.7
20240423162313 71 159 4.0 13.0 0.00 0.00 0.00 22 1022.5
20240423161812 72 199 4.0 11.0 0.00 0.00 0.00 23 1022.5
20240423161321 72 193 7.0 15.0 0.00 0.00 0.00 22 1022.5
20240423160829 71 296 7.0 15.0 0.00 0.00 0.00 22 1022.5
20240423160330 70 240 6.0 13.0 0.00 0.00 0.00 23 1022.5
20240423155810 70 314 7.0 17.0 0.00 0.00 0.00 23 1022.5
20240423155338 70 245 5.0 17.0 0.00 0.00 0.00 23 1022.4
20240423154819 70 237 5.0 16.0 0.00 0.00 0.00 23 1022.4
20240423154328 69 248 5.0 16.0 0.00 0.00 0.00 24 1022.3
20240423153830 71 250 7.0 17.0 0.00 0.00 0.00 23 1022.4
20240423153334 71 243 4.0 17.0 0.00 0.00 0.00 23 1022.4
20240423152842 70 326 3.0 10.0 0.00 0.00 0.00 24 1022.4
20240423152323 70 223 4.0 10.0 0.00 0.00 0.00 25 1022.4
20240423151825 70 344 3.0 5.0 0.00 0.00 0.00 25 1022.3
20240423151334 69 263 2.0 8.0 0.00 0.00 0.00 27 1022.2
20240423150816 68 219 3.0 8.0 0.00 0.00 0.00 28 1022.2
20240423150324 68 254 2.0 7.0 0.00 0.00 0.00 29 1022.2
20240423145844 68 146 2.0 8.0 0.00 0.00 0.00 29 1022.3
20240423145330 67 241 3.0 8.0 0.00 0.00 0.00 30 1022.4
20240423144812 67 225 2.0 4.0 0.00 0.00 0.00 31 1022.2
20240423144314 66 196 2.0 8.0 0.00 0.00 0.00 32 1022.2
20240423143843 66 244 3.0 8.0 0.00 0.00 0.00 33 1022.3
20240423143324 65 254 2.0 8.0 0.00 0.00 0.00 34 1022.2
20240423142833 65 246 3.0 9.0 0.00 0.00 0.00 34 1022.2
20240423142313 64 255 6.0 9.0 0.00 0.00 0.00 35 1022.1
20240423141814 64 260 2.0 10.0 0.00 0.00 0.00 36 1022.1
20240423141321 63 299 5.0 10.0 0.00 0.00 0.00 37 1022.0
20240423140823 63 246 4.0 13.0 0.00 0.00 0.00 38 1022.0
20240423140325 63 248 5.0 13.0 0.00 0.00 0.00 39 1021.9
20240423135816 62 248 4.0 13.0 0.00 0.00 0.00 39 1021.8
20240423135315 62 254 5.0 13.0 0.00 0.00 0.00 39 1021.8
20240423134824 62 277 5.0 10.0 0.00 0.00 0.00 40 1021.8
20240423134326 61 215 4.0 11.0 0.00 0.00 0.00 40 1021.7
20240423133827 61 297 3.0 11.0 0.00 0.00 0.00 40 1021.7
20240423133309 60 254 3.0 10.0 0.00 0.00 0.00 41 1021.7
20240423132818 59 240 3.0 8.0 0.00 0.00 0.00 42 1021.6
20240423132325 59 266 2.0 8.0 0.00 0.00 0.00 43 1021.5
20240423131827 59 234 3.0 8.0 0.00 0.00 0.00 45 1021.5
20240423131309 58 187 3.0 13.0 0.00 0.00 0.00 47 1021.5
20240423130811 58 259 4.0 13.0 0.00 0.00 0.00 48 1021.5
20240423130320 57 262 6.0 12.0 0.00 0.00 0.00 51 1021.4
20240423125843 57 254 3.0 9.0 0.00 0.00 0.00 52 1021.4
20240423125330 57 233 2.0 9.0 0.00 0.00 0.00 53 1021.4
20240423124811 56 236 3.0 7.0 0.00 0.00 0.00 54 1021.3
20240423124320 56 277 2.0 10.0 0.00 0.00 0.00 54 1021.3
20240423123822 56 239 4.0 10.0 0.00 0.00 0.00 54 1021.3
20240423123324 56 244 2.0 7.0 0.00 0.00 0.00 54 1021.3
20240423122833 56 228 3.0 7.0 0.00 0.00 0.00 53 1021.1
20240423122314 56 260 2.0 4.0 0.00 0.00 0.00 53 1021.1
20240423121816 55 260 2.0 4.0 0.00 0.00 0.00 53 1021.1
20240423121345 55 282 1.0 4.0 0.00 0.00 0.00 52 1021.1
20240423120826 56 236 1.0 4.0 0.00 0.00 0.00 51 1021.1
20240423120308 55 221 1.0 5.0 0.00 0.00 0.00 51 1021.0
20240423115846 55 225 2.0 5.0 0.00 0.00 0.00 50 1021.0